This demonstration page uses our WeatherBlox Daily Observations layout. Learn more.

Left ArrowRight Arrow

Hourly Observations for September 1, 2021

Temp ( °F °C ) Dew Point ( °F °C ) Humidity (%) Winds ( mph kmh ) Pressure ( in mb ) Visibility ( mi km ) Precip ( " mm )
12:15 am 00:15 Mostly Cloudy with Light Rain 73 23 73 23 100 100 NNE 3 6 29.80 1009 10 16 N/A
12:35 am 00:35 Partly Cloudy with Light Rain 73 23 73 23 100 100 N 5 7 29.80 1009 10 16 N/A
12:55 am 00:55 Partly Cloudy with Light Rain 73 23 73 23 100 100 NNE 3 6 29.80 1009 7 11 0.02 0.51
1:15 am 01:15 Mostly Cloudy with Rain 73 23 73 23 100 100 NNE 3 6 29.79 1009 7 11 0.01 0.25
1:35 am 01:35 Cloudy with Rain 73 23 73 23 100 100 NE 3 6 29.79 1009 5 8 0.05 1.27
1:55 am 01:55 Mostly Cloudy with Nearby Thunderstorms 73 23 73 23 100 100 NE 3 6 29.78 1008 5 8 0.07 1.78
2:15 am 02:15 Mostly Cloudy with Rain 72 22 72 22 100 100 NNE 6 9 29.77 1008 3 5 0.06 1.52
2:35 am 02:35 Cloudy with Thunderstorms 72 22 72 22 100 100 N N/A 29.77 1008 3 5 0.10 2.54
2:55 am 02:55 Cloudy with Nearby Thunderstorms 73 23 73 23 100 100 ENE 3 6 29.76 1008 3 5 0.15 3.81
3:15 am 03:15 Cloudy with Light Rain 72 22 72 22 100 100 E 3 6 29.75 1007 4 6 0.01 0.25
3:35 am 03:35 Cloudy with Heavy Rain 72 22 72 22 100 100 ESE 7 11 29.75 1007 3 5 0.07 1.78
3:55 am 03:55 Cloudy 72 22 72 22 100 100 E 9 15 29.73 1007 7 11 0.08 2.03
4:15 am 04:15 Cloudy with Heavy Rain 72 22 72 22 100 100 W 6 9 29.76 1008 7 11 0.07 1.78
4:35 am 04:35 Cloudy with Rain 72 22 72 22 100 100 N N/A 29.75 1007 2 3 0.43 10.92
4:55 am 04:55 Cloudy with Heavy Rain 72 22 72 22 100 100 NNE 3 6 29.74 1007 7 11 0.53 13.46
5:15 am 05:15 Cloudy with Light Rain 72 22 72 22 100 100 NNE 5 7 29.73 1007 10 16 0.01 0.25
5:35 am 05:35 Cloudy 72 22 72 22 100 100 ENE 5 7 29.73 1007 10 16 0.01 0.25
5:55 am 05:55 Cloudy 72 22 72 22 100 100 N N/A 29.73 1007 10 16 0.01 0.25
6:15 am 06:15 Cloudy 72 22 72 22 100 100 ENE 3 6 29.73 1007 10 16 N/A
6:35 am 06:35 Cloudy 72 22 72 22 100 100 ENE 7 11 29.73 1007 10 16 N/A
6:55 am 06:55 Cloudy 72 22 72 22 100 100 NE 5 7 29.73 1007 10 16 N/A
7:15 am 07:15 Cloudy 72 22 72 22 100 100 NE 3 6 29.73 1007 10 16 N/A
7:35 am 07:35 Cloudy with Light Rain 72 22 72 22 100 100 NE 3 6 29.72 1006 7 11 N/A
7:55 am 07:55 Cloudy with Light Rain 72 22 72 22 100 100 NE 5 7 29.72 1006 7 11 N/A
8:15 am 08:15 Cloudy with Light Rain 72 22 72 22 100 100 ENE 5 7 29.71 1006 7 11 N/A
8:35 am 08:35 Cloudy 72 22 72 22 100 100 ENE 5 7 29.71 1006 10 16 N/A
8:55 am 08:55 Cloudy with Light Rain 72 22 72 22 100 100 NE 3 6 29.70 1006 7 11 N/A
9:15 am 09:15 Cloudy with Light Rain 72 22 72 22 100 100 ENE 5 7 29.69 1005 7 11 N/A
9:35 am 09:35 Cloudy with Light Rain 72 22 72 22 100 100 ENE 6 9 29.69 1005 5 8 N/A
9:55 am 09:55 Cloudy with Mist and Fog 72 22 72 22 100 100 E 3 6 29.68 1005 4 6 N/A
10:15 am 10:15 Cloudy with Mist and Fog 72 22 72 22 100 100 E 6 9 29.67 1005 4 6 N/A
10:35 am 10:35 Cloudy with Mist and Fog 73 23 73 23 100 100 ESE 6 9 29.66 1004 5 8 N/A
10:55 am 10:55 Cloudy with Mist and Fog 73 23 73 23 100 100 SE 5 7 29.65 1004 5 8 N/A
11:15 am 11:15 Cloudy 75 24 75 24 100 100 SE 10 17 29.64 1004 7 11 N/A
11:35 am 11:35 Cloudy with Light Rain 77 25 75 24 94 94 SE 10 17 29.62 1003 7 11 N/A
11:55 am 11:55 Cloudy 77 25 75 24 94 94 ESE 9 15 29.60 1003 10 16 N/A
12:15 pm 12:15 Cloudy with Rain 77 25 75 24 94 94 SE 8 13 29.59 1002 3 5 0.02 0.51
12:35 pm 12:35 Cloudy with Rain 75 24 75 24 100 100 SE 14 22 29.59 1002 3 5 0.07 1.78
12:55 pm 12:55 Cloudy with Light Rain 75 24 75 24 100 100 SE 8 13 29.57 1001 4 6 0.11 2.79
1:15 pm 13:15 Cloudy with Light Rain 75 24 75 24 100 100 SSE 9 15 29.55 1001 5 8 0.02 0.51
1:35 pm 13:35 Cloudy 77 25 77 25 100 100 S 13 20 29.54 1000 10 16 0.02 0.51
1:55 pm 13:55 Cloudy 79 26 77 25 94 94 S 13 20 29.54 1000 10 16 0.02 0.51
2:15 pm 14:15 Cloudy with Light Rain 79 26 77 25 94 94 SSE 16 26 29.52 1000 7 11 N/A
2:35 pm 14:35 Cloudy with Light Rain 77 25 75 24 94 94 SSW 15 24 29.53 1000 1 2 0.35 8.89
2:55 pm 14:55 Cloudy with Heavy Rain 75 24 75 24 100 100 S 13 20 29.53 1000 3 4 0.42 10.67
3:15 pm 15:15 Cloudy with Heavy Rain 75 24 75 24 100 100 SSW 8 13 29.52 1000 2 3 0.07 1.78
3:35 pm 15:35 Cloudy with Rain 77 25 77 25 100 100 SSW 9 15 29.50 999 3 4 0.12 3.05
3:55 pm 15:55 Cloudy with Rain 77 25 77 25 100 100 SSW 6 9 29.50 999 5 8 0.14 3.56
4:15 pm 16:15 Cloudy 77 25 77 25 100 100 SSW 8 13 29.49 999 10 16 N/A
4:35 pm 16:35 Cloudy with Light Rain 77 25 77 25 100 100 SSW 7 11 29.50 999 7 11 N/A
4:55 pm 16:55 Cloudy 77 25 77 25 100 100 S 8 13 29.49 999 10 16 N/A
5:15 pm 17:15 Cloudy with Heavy Rain 73 23 73 23 100 100 NW 17 28 29.51 999 3 4 0.12 3.05
5:35 pm 17:35 Cloudy 70 21 70 21 100 100 N 13 20 29.52 1000 10 16 0.15 3.81
5:55 pm 17:55 Cloudy with Light Rain 68 20 68 20 100 100 N 18 30 29.54 1000 10 16 0.16 4.06
6:15 pm 18:15 Cloudy with Light Rain 68 20 68 20 100 100 N 18 30 29.55 1001 10 16 N/A
6:35 pm 18:35 Cloudy 68 20 68 20 100 100 N 16 26 29.56 1001 10 16 N/A
6:55 pm 18:55 Cloudy 66 19 66 19 100 100 N 15 24 29.57 1001 7 11 N/A
7:15 pm 19:15 Cloudy 66 19 66 19 100 100 NNW 15 24 29.59 1002 10 16 N/A
7:35 pm 19:35 Cloudy 66 19 64 18 94 94 N 13 20 29.61 1003 7 11 N/A
7:55 pm 19:55 Cloudy with Drizzle 66 19 64 18 94 94 N 14 22 29.62 1003 10 16 N/A
8:15 pm 20:15 Cloudy with Drizzle 66 19 64 18 94 94 N 15 24 29.64 1004 7 11 N/A
8:35 pm 20:35 Cloudy with Drizzle 66 19 64 18 94 94 NNW 16 26 29.65 1004 7 11 N/A
8:55 pm 20:55 Cloudy with Drizzle 64 18 64 18 100 100 NNW 15 24 29.66 1005 5 8 N/A
9:15 pm 21:15 Cloudy 64 18 64 18 100 100 NNW 16 26 29.67 1005 10 16 N/A
9:35 pm 21:35 Cloudy 66 19 64 18 94 94 NNW 17 28 29.69 1006 10 16 N/A
9:55 pm 21:55 Cloudy 66 19 63 17 88 88 N 15 24 29.69 1006 10 16 N/A
10:15 pm 22:15 Cloudy 66 19 63 17 88 88 N 18 30 29.70 1006 10 16 N/A
10:35 pm 22:35 Cloudy 66 19 63 17 88 88 N 13 20 29.71 1006 10 16 N/A
11:15 pm 23:15 Cloudy 66 19 63 17 88 88 N 14 22 29.73 1007 10 16 N/A
11:35 pm 23:35 Cloudy 66 19 63 17 88 88 N 13 20 29.74 1007 10 16 N/A
11:55 pm 23:55 Cloudy 66 19 63 17 88 88 N 12 19 29.75 1008 10 16 N/A

Powered by AerisWeather